TimeMST,TemperatureF,Dew PointF,Humidity,Sea Level PressureIn,VisibilityMPH,Wind Direction,Wind SpeedMPH,Gust SpeedMPH,PrecipitationIn,Events,Conditions,WindDirDegrees,DateUTC
12:16 AM,25.5,20.3,81,29.70,10.0,Calm,Calm,-,N/A,,Clear,0,2013-01-28 07:16:00
12:36 AM,27.3,22.1,81,29.70,10.0,Calm,Calm,-,N/A,,Clear,0,2013-01-28 07:36:00
12:56 AM,25.2,20.5,82,29.69,10.0,SSW,4.6,-,N/A,,Clear,200,2013-01-28 07:56:00
1:16 AM,27.7,21.4,77,29.68,10.0,Calm,Calm,-,N/A,,Clear,0,2013-01-28 08:16:00
1:36 AM,26.1,19.8,77,29.69,10.0,WSW,4.6,-,N/A,,Clear,240,2013-01-28 08:36:00
1:56 AM,26.8,19.8,75,29.69,10.0,Calm,Calm,-,N/A,,Clear,0,2013-01-28 08:56:00
2:16 AM,25.7,19.2,76,29.67,10.0,SSE,3.5,-,N/A,,Clear,150,2013-01-28 09:16:00
2:36 AM,28.6,19.4,69,29.68,10.0,North,8.1,-,N/A,,Clear,350,2013-01-28 09:36:00
2:56 AM,24.3,18.1,77,29.67,10.0,Calm,Calm,-,N/A,,Clear,0,2013-01-28 09:56:00
3:16 AM,23.5,18.7,82,29.67,10.0,Calm,Calm,-,N/A,,Clear,0,2013-01-28 10:16:00
3:36 AM,23.5,18.0,79,29.67,10.0,South,3.5,-,N/A,,Clear,170,2013-01-28 10:36:00
3:56 AM,21.2,16.2,81,29.66,10.0,Calm,Calm,-,N/A,,Clear,0,2013-01-28 10:56:00
4:16 AM,21.9,17.8,84,29.66,10.0,Calm,Calm,-,N/A,,Clear,0,2013-01-28 11:16:00
4:36 AM,20.5,16.7,85,29.65,10.0,South,4.6,-,N/A,,Clear,190,2013-01-28 11:36:00
4:56 AM,20.5,16.7,85,29.63,10.0,South,3.5,-,N/A,,Clear,170,2013-01-28 11:56:00
5:16 AM,21.0,16.2,81,29.64,10.0,Calm,Calm,-,N/A,,Clear,0,2013-01-28 12:16:00
5:36 AM,21.4,16.9,83,29.64,10.0,Calm,Calm,-,N/A,,Clear,0,2013-01-28 12:36:00
5:56 AM,21.2,16.2,81,29.64,10.0,Calm,Calm,-,N/A,,Clear,0,2013-01-28 12:56:00
6:16 AM,20.5,16.5,85,29.63,10.0,Calm,Calm,-,N/A,,Clear,0,2013-01-28 13:16:00
6:36 AM,19.4,16.5,89,29.64,10.0,Calm,Calm,-,N/A,,Clear,0,2013-01-28 13:36:00
6:56 AM,20.3,16.5,85,29.63,10.0,Calm,Calm,-,N/A,,Clear,0,2013-01-28 13:56:00
7:16 AM,19.8,16.3,87,29.64,10.0,Calm,Calm,-,N/A,,Clear,0,2013-01-28 14:16:00
7:36 AM,21.4,17.2,84,29.64,10.0,SW,3.5,-,N/A,,Clear,230,2013-01-28 14:36:00
7:56 AM,22.6,18.0,82,29.64,10.0,Calm,Calm,-,N/A,,Clear,0,2013-01-28 14:56:00
8:16 AM,24.6,19.4,81,29.64,10.0,Calm,Calm,-,N/A,,Clear,0,2013-01-28 15:16:00
8:36 AM,28.6,22.1,77,29.63,10.0,Calm,Calm,-,N/A,,Clear,0,2013-01-28 15:36:00
8:56 AM,33.4,23.9,68,29.62,10.0,Calm,Calm,-,N/A,,Clear,0,2013-01-28 15:56:00
9:16 AM,38.1,25.5,61,29.62,10.0,Calm,Calm,-,N/A,,Clear,0,2013-01-28 16:16:00
9:36 AM,39.6,27.0,61,29.61,10.0,Calm,Calm,-,N/A,,Clear,0,2013-01-28 16:36:00
9:56 AM,41.7,27.9,58,29.61,10.0,Calm,Calm,-,N/A,,Scattered Clouds,0,2013-01-28 16:56:00
10:16 AM,44.1,29.3,56,29.60,10.0,NE,3.5,-,N/A,,Clear,40,2013-01-28 17:16:00
10:36 AM,45.5,29.7,54,29.58,10.0,North,5.8,-,N/A,,Clear,10,2013-01-28 17:36:00
10:56 AM,47.5,27.5,46,29.57,10.0,North,4.6,-,N/A,,Clear,350,2013-01-28 17:56:00
11:36 AM,49.8,26.1,40,29.54,10.0,North,6.9,-,N/A,,Clear,10,2013-01-28 18:36:00
11:56 AM,52.2,23.7,33,29.55,10.0,North,5.8,-,N/A,,Clear,350,2013-01-28 18:56:00
12:16 PM,51.1,25.3,37,29.54,10.0,North,10.4,-,N/A,,Clear,360,2013-01-28 19:16:00
12:36 PM,49.1,25.2,39,29.55,10.0,North,11.5,-,N/A,,Clear,350,2013-01-28 19:36:00
12:56 PM,48.2,28.8,47,29.56,10.0,NNE,13.8,-,N/A,,Clear,30,2013-01-28 19:56:00
1:16 PM,46.9,29.7,51,29.56,10.0,NNE,13.8,18.4,N/A,,Clear,20,2013-01-28 20:16:00
1:36 PM,44.8,27.9,52,29.56,10.0,NNE,23.0,29.9,N/A,,Scattered Clouds,30,2013-01-28 20:36:00
1:56 PM,44.4,27.1,51,29.56,10.0,NNE,19.6,26.5,N/A,,Scattered Clouds,20,2013-01-28 20:56:00
2:16 PM,43.0,27.0,53,29.58,10.0,NNE,15.0,20.7,N/A,,Scattered Clouds,30,2013-01-28 21:16:00
2:36 PM,40.5,26.6,58,29.58,10.0,NNE,16.1,20.7,N/A,,Mostly Cloudy,30,2013-01-28 21:36:00
2:56 PM,38.1,26.8,64,29.60,10.0,NNE,12.7,19.6,N/A,,Overcast,20,2013-01-28 21:56:00
3:16 PM,36.9,27.3,68,29.65,10.0,North,8.1,-,N/A,Snow,Light Snow,350,2013-01-28 22:16:00
3:36 PM,35.2,29.5,80,29.65,3.0,ESE,4.6,-,N/A,Snow,Snow,110,2013-01-28 22:36:00
3:56 PM,34.0,31.6,91,29.65,0.8,West,3.5,-,N/A,Snow,Light Snow,280,2013-01-28 22:56:00
4:16 PM,33.1,32.2,96,29.65,0.5,East,5.8,-,N/A,Snow,Snow,100,2013-01-28 23:16:00
4:36 PM,32.5,32.2,99,29.66,2.0,NE,5.8,-,N/A,Snow,Light Snow,50,2013-01-28 23:36:00
4:56 PM,32.2,32.0,99,29.67,7.0,NNE,6.9,-,N/A,Snow,Light Snow,30,2013-01-28 23:56:00
5:16 PM,32.0,32.0,100,29.68,1.5,NNE,5.8,-,N/A,Snow,Light Snow,30,2013-01-29 00:16:00
5:36 PM,32.0,31.6,99,29.69,5.0,NNE,6.9,-,N/A,Snow,Light Snow,20,2013-01-29 00:36:00
5:56 PM,32.0,31.6,99,29.71,5.0,Calm,Calm,-,N/A,Snow,Light Snow,0,2013-01-29 00:56:00
6:16 PM,31.8,31.1,97,29.72,7.0,Calm,Calm,-,N/A,Snow,Light Snow,0,2013-01-29 01:16:00
6:36 PM,31.6,30.9,97,29.72,10.0,ENE,3.5,-,N/A,,Overcast,60,2013-01-29 01:36:00
6:56 PM,31.5,30.2,95,29.72,10.0,East,3.5,-,N/A,,Overcast,80,2013-01-29 01:56:00
7:16 PM,31.3,30.2,96,29.72,7.0,East,6.9,-,N/A,Snow,Light Snow,100,2013-01-29 02:16:00
7:36 PM,30.9,29.8,96,29.73,5.0,SE,4.6,-,N/A,Snow,Light Snow,130,2013-01-29 02:36:00
7:56 PM,30.2,29.3,96,29.73,1.0,East,4.6,-,N/A,Snow,Snow,100,2013-01-29 02:56:00
8:16 PM,29.8,29.3,98,29.73,0.5,East,5.8,-,N/A,Snow,Heavy Snow,100,2013-01-29 03:16:00
8:36 PM,29.5,29.3,99,29.72,2.5,ESE,6.9,-,N/A,Snow,Light Snow,110,2013-01-29 03:36:00
8:56 PM,29.3,28.8,98,29.73,5.0,ESE,6.9,-,N/A,Snow,Light Snow,120,2013-01-29 03:56:00
9:16 PM,28.9,28.2,97,29.73,3.0,ESE,4.6,-,N/A,Snow,Light Snow,120,2013-01-29 04:16:00
9:36 PM,28.8,28.0,97,29.73,4.0,ESE,3.5,-,N/A,Snow,Light Snow,120,2013-01-29 04:36:00
9:56 PM,28.8,28.0,97,29.72,10.0,ESE,3.5,-,N/A,,Overcast,120,2013-01-29 04:56:00
10:16 PM,29.1,28.2,96,29.73,10.0,SSE,6.9,-,N/A,,Overcast,150,2013-01-29 05:16:00
10:36 PM,29.1,27.5,94,29.73,10.0,Calm,Calm,-,N/A,,Overcast,0,2013-01-29 05:36:00
10:56 PM,28.2,26.4,93,29.73,10.0,East,9.2,-,N/A,,Overcast,90,2013-01-29 05:56:00
11:16 PM,27.5,25.7,93,29.73,4.0,East,4.6,-,N/A,Snow,Light Snow,90,2013-01-29 06:16:00
11:36 PM,27.5,25.7,93,29.73,5.0,ESE,8.1,-,N/A,Snow,Light Snow,110,2013-01-29 06:36:00
11:56 PM,27.0,24.8,92,29.73,3.0,ESE,10.4,-,N/A,Snow,Light Snow,110,2013-01-29 06:56:00